Location: *
(46.1833°N, 22.7667°E)
Time: 15:19:05
(UTC+00:00)

Cosmos 1943 - Pass Details

Date: 17 September 2019
Orbit: 832 x 851 km, 71.0° (Epoch: 14 October)

Event Time Altitude Azimuth Distance (km) Brightness Sun altitude
Rises 19:47:55 0° 338° (NNW) 3,427 7.3 -30.8°
Reaches altitude 10° 19:50:36 10° 347° (NNW) 2,486 6.3 -31.1°
Enters shadow 19:54:29 31° 25° (NNE) 1,443 4.5 -31.6°
